Location: Krasnoyarskiy Pitomnik
(51.1333°N, 71.6167°E)
Time: 20:18:47
(UTC+00:00)

A-11 Canister half - Pass Details

Date: 19 April 2024
Orbit: 1525 x 1683 km, 47.3° (Epoch: 28 May)

Event Time Altitude Azimuth Distance (km) Brightness Sun altitude
Rises 22:37:22 0° 167° (SSE) 4,848 11.4 -13.2°
Reaches altitude 10° 22:43:41 10° 138° (SE) 3,902 11.2 -12.4°
Maximum altitude 22:46:27 11° 121° (ESE) 3,800 11.4 -12.1°
Drops below altitude 10° 22:49:15 10° 105° (ESE) 3,930 11.7 -11.7°
Sets 22:55:37 0° 76° (ENE) 4,939 13.2 -10.9°
